STARLINK-5563 (56135 NORAD) Tracking and Keplerian Element Data

This shows tracking and keplerian element data for the satellite.

Feedback or suggestion? Click here.




ElementValue
Catalog56135
NameSTARLINK-5563
Epoch Orbit656
Epoch Day127.10010941
Epoch Year2023
RAAN33.1428
Inclination43.001
Eccentricity0.0001816
Argument of Perigee258.8657
Mean Anonmoly101.2007
Mean Motion15.71343038
Decay Rate-8.865E-05
L11 56135U 23046AV 23127.10010941 -.00008865 00000+0 -64253-4 0 9998
L22 56135 43.0010 33.1428 0001816 258.8657 101.2007 15.71343038 6561



Live tracking and technical data element details for STARLINK-5563 (NORAD 56135). STARLINK-5563 can be tracked NOW for your location showing map with azimuth and elevation plus other details from your city location.







IsCatalogInMostPopularTable: catalog: 56135, numindb: 3
Update: records affected: 1



GetName: 56135 STARLINK-5563

Hit Count: updated at: Mon, 05 Jun 2023 00:54:57 GMT